Location: Poughquag
(41.6090°N, 73.6820°W)
Time: 14:56:27
(UTC-04:00)

NOAA 18 - Pass Details

Date: 21 September 2024
Orbit: 837 x 859 km, 98.9° (Epoch: 12 October)

Event Time Altitude Azimuth Distance (km) Brightness Sun altitude
Exits shadow 21:40:23 12° 28° (NNE) 2,313 7.5 -30.7°
Drops below altitude 10° 21:41:08 10° 22° (NNE) 2,480 7.7 -30.8°
Sets 21:44:19 0° 3° (N) 3,416 8.7 -31.3°
